This is the latest recevied weather packets stored in our database for station/object F5GJJ-13. If no packets are shown the sender has not sent any weather packets the latest 10 day(s).
| Time | Temp. | Humidity | Pressure | Rain* | Wind** | Luminosity | Snow |
|---|---|---|---|---|---|---|---|
| 1778136961 | 13.33° C | 84% | 1014.6 hPa | 0 mm | - | - | - |
| 1778136795 | 13.33° C | 83% | 1014.6 hPa | 0 mm | - | - | - |
| 1778135835 | 13.33° C | 84% | 1014.6 hPa | 0 mm | - | - | - |
| 1778135161 | 13.33° C | 83% | 1014.6 hPa | 0 mm | - | - | - |
| 1778134875 | 13.33° C | 83% | 1014.6 hPa | 0 mm | - | - | - |
| 1778133915 | 13.89° C | 86% | 1014.6 hPa | 0 mm | - | - | - |
| 1778133360 | 13.33° C | 86% | 1014.6 hPa | 0 mm | - | - | - |
| 1778132956 | 13.33° C | 86% | 1014.6 hPa | 0 mm | - | - | - |
| 1778131996 | 12.78° C | 86% | 1014.6 hPa | 0 mm | - | - | - |
| 1778131560 | 12.22° C | 86% | 1014.6 hPa | 0 mm | - | - | - |
| 1778131035 | 12.22° C | 86% | 1013.6 hPa | 0 mm | - | - | - |
| 1778130076 | 12.22° C | 86% | 1013.6 hPa | 0 mm | - | - | - |
| 1778129761 | 12.22° C | 86% | 1013.6 hPa | 0 mm | - | - | - |
| 1778129115 | 11.67° C | 86% | 1013.6 hPa | 0 mm | - | - | - |
| 1778128155 | 11.67° C | 84% | 1013.6 hPa | 0 mm | - | - | - |
| 1778127196 | 11.67° C | 84% | 1013.6 hPa | 0 mm | - | - | - |
| 1778126235 | 11.67° C | 86% | 1012.6 hPa | 0 mm | - | - | - |
| 1778126162 | 11.67° C | 86% | 1012.6 hPa | 0 mm | - | - | - |
| 1778125274 | 11.67° C | 86% | 1013.6 hPa | 0 mm | - | - | - |
| 1778124362 | 12.22° C | 86% | 1013.6 hPa | 0 mm | - | - | - |
| 1778124316 | 12.22° C | 86% | 1013.6 hPa | 0 mm | - | - | - |
| 1778123356 | 12.22° C | 84% | 1012.6 hPa | 0 mm | - | - | - |
| 1778122561 | 12.22° C | 84% | 1013.6 hPa | 0 mm | - | - | - |
| 1778122394 | 12.22° C | 84% | 1013.6 hPa | 0 mm | - | - | - |
| 1778121436 | 12.78° C | 83% | 1013.6 hPa | 0 mm | - | - | - |
* Rain latest hour (hover to see other rain measurements)
** Current wind speed in m/s (hover to see current wind gust speed)